Regional Weather Roundup
Issued by NWS

Home | Current Version | Previous Version | Graphics & Text | Print | Product List | Glossary On
Versions: 1 2 3 4 5 6 7 8 9 10 11 12 13 14 15 16 17 18 19 20 21 22 23 24 25 26 27 28 29 30 31 32 33 34 35 36 37 38 39 40 41 42 43 44 45 46 47 48 49 50
000
ASUS43 KBIS 032310
RWRND

NORTH DAKOTA REGIONAL WEATHER ROUNDUP
NATIONAL WEATHER SERVICE BISMARCK ND
600 PM CDT SUN MAY 03 2015

NOTE: "FAIR" INDICATES FEW OR NO CLOUDS BELOW 12,000 FEET WITH NO
SIGNIFICANT WEATHER AND/OR OBSTRUCTIONS TO VISIBILITY.


NDZ001>003-009>011-017-040000-
NORTHWEST NORTH DAKOTA

CITY           SKY/WX    TMP DP  RH WIND       PRES   REMARKS
WILLISTON      MOSUNNY   64  19  17 NW13      30.02S
MINOT          MOSUNNY   63  23  21 NW20      29.99S
MINOT AFB      SUNNY     64  26  23 NW17G23   29.99R
$$

NDZ018>021-031>035-040>046-040000-
SOUTHWEST NORTH DAKOTA

CITY           SKY/WX    TMP DP  RH WIND       PRES   REMARKS
BISMARCK       MOSUNNY   65  18  16 NW17G25   30.02R
DICKINSON      PTSUNNY   63  26  24 NW10G20   30.02S
GARRISON         N/A     66  23  19 NW17G25   30.00S
HETTINGER ARPT MOSUNNY   65  24  21 MISG      30.02S
$$

NDZ004>008-012>016-024-026-027-054-040000-
NORTHEAST NORTH DAKOTA

CITY           SKY/WX    TMP DP  RH WIND       PRES   REMARKS
GRAND FORKS    MOSUNNY   68  26  20 NW14G22   29.92R
GRND FRKS AFB  SUNNY     67  25  20 N16G23    29.93R
DEVILS LAKE    MOSUNNY   63  25  23 NW16G22   29.95S
$$

NDZ022-023-025-028>030-036>039-047>053-040000-
SOUTHEAST NORTH DAKOTA

CITY           SKY/WX    TMP DP  RH WIND       PRES   REMARKS
FARGO          SUNNY     71  23  16 NW13      29.92R
JAMESTOWN      MOSUNNY   65  20  17 NW18      29.96R
$$




USA.gov is the U.S. government's official web portal to all federal, state and local government web resources and services.